www.pogodaiklimat.ru

Погода и климат >> Архив погоды >> Латвия >> Алуксне


ПОГОДА в Алуксне

  • Прогноз погоды в Алуксне
  • Монитор погоды в Алуксне

АРХИВ ПОГОДЫ в Алуксне

Время (UTC), дата Ветер
(напр.,м/с)
 
Видим.   Явления Облачность Т
(С)
Тd
(С)
f
(%)
Тe
(С)
Тes
(С)
Комфортность P
(гПа)
Po
(гПа)
Тmin
(С)
Tmax
(С)
R
(мм)
R24
(мм)
S
(см)
03 12.08 ЮЗ 1-1
{2}
10 км 5/0
[]
+11.7 +11.3 97 +11 +11 1015.5 991.6
06 12.08 ЮЗ 1-3
{3}
20 км 9/0
[]
+14.8 +12.9 88 +15 +16 1015.8 992.2
09 12.08 ЮЗ 2-5
{6}
20 км 4/4 1500 м
[]
+19.7 +12.1 62 +22 +30 комфорт 1015.7 992.5
12 12.08 Ю 3-5
{7}
20 км 3/0
[]
+22.6 +13.0 55 +26 +31 жарко 1014.3 991.3
15 12.08 ЮВ 2-4
{6}
20 км 9/0
[]
+21.8 +15.6 68 +25 +26 комфорт 1012.4 989.4
18 12.08 Ю 4-6
{7}
20 км 9/0
[]
+19.4 +15.0 76 +21 +21 комфорт 1011.4 988.3 0.1
21 12.08 З 2-4
{5}
18 км 9/9 1500 м
[]
+17.1 +15.7 91 +17 +17 1011.2 987.9 0.2
00 13.08 СЗ 1-1
{2}
6000 м 9/9 1500 м
[]
+16.0 +15.5 97 +17 +17 1011.0 987.6
03 13.08 СЗ 1-2
{3}
6000 м 9/9 <50 м
[]
+15.6 +15.2 97 +16 +16 1010.2 986.8
06 13.08 11 км 10/0
[]
+16.3 +15.8 97 1009.0 985.7
09 13.08 СЗ 2-3
{3}
20 км 9/9 300 м
[]
+18.5 +14.9 80 +20 +23 1008.6 985.5
12 13.08 СЗ 2-5
{5}
20 км 6/6 600 м
[]
+20.2 +14.3 69 +23 +28 комфорт 1008.1 985.1
15 13.08 СЗ 2-3
{5}
20 км 9/0
[]
+19.9 +14.4 71 +23 +23 комфорт 1008.7 985.7
18 13.08 З 1-1
{3}
20 км ясно +15.9 +13.8 87 +17 +17 1010.0 986.6
21 13.08 Ю 1-1
{1}
19 км ясно +13.1 +12.4 96 +13 +13 1011.1 987.4
00 14.08 Ю 2-2
{2}
20 км н/о +13.2 +12.3 94 +12 +12 1011.2 987.6
03 14.08 Ю 1-2
{3}
20 км н/о +13.4 +11.9 91 +14 +14 1011.4 987.8
06 14.08 З 3-5
{5}
20 км н/о +15.7 +12.7 82 +15 +15 1011.9 988.4
09 14.08 ЮЗ 3-7
{9}
20 км н/о +18.4 +11.2 63 +19 +19 1011.9 988.6
12 14.08 ЮЗ 2-5
{6}
19 км 10/0
[]
+19.1 +11.1 60 +21 +21 комфорт 1011.3 988.1
15 14.08 СЗ 2-5
{5}
20 км 9/9 600 м
[]
+17.0 +12.3 74 +17 +18 1011.2 987.9
18 14.08 Ю 1-3
{3}
20 км 10/0
[]
+13.1 +12.2 94 +13 +13 1011.7 988.0
21 14.08 З 1-3
{3}
20 км 10/0
[]
+12.7 +12.2 97 +13 +13 1011.4 987.7
00 15.08 З 1-1
{2}
200 м ?/? +11.4 +11.3 99 +11 +11 1011.6 987.8
03 15.08 ЮЗ 1-2
{3}
14 км 5/5 600 м
[]
+10.4 +10.2 99 +10 +10 1011.8 987.9
06 15.08 З 2-4
{4}
20 км ясно +14.2 +12.2 88 +14 +18 1012.0 988.4
09 15.08 З 3-8
{8}
20 км 4/4 600 м
[]
+16.9 +9.7 63 +17 +22 1012.2 988.8
12 15.08 ЮЗ 2-6
{8}
20 км 5/5 1000 м
[]
+19.7 +9.5 52 +21 +26 комфорт 1012.1 988.9
15 15.08 З 4-7
{8}
20 км 3/3 1500 м
[]
+19.0 +8.3 50 +20 +21 1013.2 989.9
18 15.08 СЗ 1-1
{2}
20 км ясно +13.0 +10.5 85 +13 +13 1014.7 990.9
00 16.08 ЮЗ 1-1
{1}
17 км ясно +8.8 +8.4 97 +8 +8 1016.6 992.4
03 16.08 штиль 0
{1}
8000 м ясно +8.1 +7.7 97 +7 +7 1017.0 992.8
06 16.08 В 1-1
{1}
20 км 3/3 1500 м
[]
+16.4 +10.2 67 +17 +21 1016.8 993.3
09 16.08 З 2-4
{4}
20 км ясно +18.2 +8.1 52 +19 +29 1016.6 993.2
12 16.08 ЮЗ 1-4
{5}
20 км 9/9 1500 м
[]
+19.5 +8.7 50 +22 +23 комфорт 1016.4 993.1
15 16.08 В 1-2
{3}
20 км ясно +20.1 +9.6 51 +23 +26 комфорт 1015.9 992.7
18 16.08 ЮВ 1-2
{2}
20 км ясно +14.8 +11.5 81 +15 +15 1016.7 993.0
21 16.08 ЮВ 1-2
{3}
20 км ясно +14.2 +9.8 75 +15 +15 1017.4 993.7
00 17.08 ЮВ 2-3
{3}
20 км ясно +12.3 +9.2 81 +11 +11 1017.9 994.0
03 17.08 ЮВ 1-2
{3}
20 км ясно +10.1 +8.8 92 +10 +10 1017.9 993.8
06 17.08 ЮВ 2-4
{4}
20 км ясно +16.8 +10.3 65 +17 +21 1017.7 994.2
09 17.08 Ю 3-6
{6}
20 км ясно +20.6 +11.2 55 +23 +31 комфорт 1017.2 994.0
12 17.08 В 2-4
{4}
20 км ясно +21.0 +11.0 53 +24 +33 комфорт 1016.3 993.1
15 17.08 В 2-3
{4}
20 км ясно +20.9 +10.0 50 +23 +26 комфорт 1015.4 992.3
18 17.08 ЮВ 1-3
{3}
20 км ясно +16.2 +10.9 71 +17 +17 1015.9 992.4
21 17.08 ЮВ 1-2
{4}
20 км ясно +14.3 +9.7 74 +15 +15 1015.6 991.9
00 18.08 В 1-2
{2}
20 км ясно +10.3 +9.3 94 +10 +10 1015.6 991.6
03 18.08 В 1-4
{4}
20 км ясно +10.4 +9.1 92 +10 +10 1014.7 990.7
06 18.08 В 1-2
{2}
20 км ясно +17.0 +11.0 68 +18 +22 1013.8 990.4
09 18.08 В 2-4
{4}
20 км ясно +20.1 +7.7 45 +22 +32 комфорт 1013.1 989.9
12 18.08 ЮВ 2-4
{4}
20 км ясно +21.6 +8.7 44 +23 +32 комфорт 1012.1 989.1
15 18.08 В 1-2
{3}
20 км н/о +21.9 +9.4 45 +23 +23 комфорт 1011.9 988.9
18 18.08 ЮВ 1-1
{2}
20 км н/о +15.8 +12.5 81 +16 +16 1012.6 989.1
21 18.08 ЮВ 2-4
{5}
20 км н/о +16.7 +10.5 67 +17 +17 1012.0 988.6
00 19.08 ЮВ 3-5
{6}
20 км н/о +16.1 +9.9 67 +16 +16 1011.7 988.3

 

Местоположение метеостанции Алуксне (Латвия): широта 57.43 долгота 27.03 высота над уровнем моря 193 м.

В архиве по умолчанию представлена погода в Алуксне за последнюю неделю. Архивные данные за месяц целиком и за предыдущие месяцы, начиная с января 2011 года, Вы можете получить, выбрав интересующий диапазон дат из раскрывающегося списка и нажав кнопку "Ввод!".


*Определитесь, кто Вы:
робот инопланетянин человек

Внимание! Время в таблицах - всемирное. Для получения местного времени необходимо прибавить поправку, которая равна 2 ч.

Смотрите также архив погоды в соседних городах и на ближайших метеорологических станциях:

Погода в Гулбене (Латвия) (38 км)
Погода в Выру (Эстония) (47 км)
Погода в Валге (Эстония) (71 км)
Погода в Зозени (Латвия) (75 км)
Погода в Мадоне (Латвия) (80 км)
Погода в Пскове (Псковская область, Россия) (89 км)
Погода в Тарту (Эстония) (98 км)
Погода в Резекне (Латвия) (101 км)
Погода в Приекули (Латвия) (103 км)
Погода в Руйиене (Латвия) (111 км)

Пояснения к столбцам:

Ветер - указаны скорость ветра в м/с - средняя за 10 мин, порывы в срок и между сроками (в фигурных скобках) и направление, откуда дует ветер: С - северный, СВ - северо-восточный, В - восточный, ЮВ - юго-восточный, Ю - южный, ЮЗ - юго-западный, З - западный, СЗ - северо-западный.
Видимость - горизонтальная дальность видимости в метрах или километрах. При видимости от 1 до 10 км при отсутствии осадков обычно наблюдается дымка, при ухудшении видимости до 1 км и менее - туман. В сухую погоду видимость может ухудшаться дымом, пылью или мглою.
Явления - указаны атмосферные явления, наблюдавшиеся в срок или в последний час перед сроком; фигурными скобками обозначены явления, наблюдавшиеся между сроками (за 1-3 часа до срока); квадратными скобками обозначены град или гололедные отложения с указанием их диаметра в мм.
Облачность - указаны через наклонную черту общая и нижняя облачность в баллах и высота нижней границы облаков в метрах; квадратными скобками обозначены формы облаков: Ci - перистые, Cs - перисто-слоистые, Cc - перисто-кучевые, Ac - высококучевые, As - высокослоистые, Sc - слоисто-кучевые, Ns - слоисто-дождевые, Cu - кучевые, Cb - кучево-дождевые. Подробнее классификацию облаков см. в Атласе облаков (PDF).
T - Температура воздуха - температура, измеренная на высоте 2 м над землей.
Td - Температура точки росы - температура, при понижении до которой содержащийся в воздухе водяной пар достигнет насыщения.
f - Относительная влажность воздуха - влажноcть воздуха, измеренная на высоте 2 м над землей.
Te - Эффективная температура - температура, которую ощущает одетый по сезону человек в тени. Характеристика душности погоды. При расчете учитывается влияние влажности воздуха и скорости ветра на теплоощущения человека.
Tes - Эффективная температура на солнце - температура, которую ощущает человек, с поправкой на солнечный нагрев. Характеристика знойности погоды. Зависит от высоты солнца над горизонтом, облачности и скорости ветра. Ночью, в пасмурную погоду, а также при ветре 12 м/с и более поправка равна нулю.
P - Атмосферное давление - приведенное к уровню моря атмосферное давление.
Po - Атмосферное давление - измеренное на уровне метеостанции атмосферное давление.
Tmin - Минимальная температура - минимум температуры воздуха на высоте 2 м над землей.
Tmax - Максимальная температура - максимум температуры воздуха на высоте 2 м над землей.
R - Количество осадков - Количество выпавших осадков за период времени, мм. При наведении курсора мыши на число - период времени, за который выпало указанное количество осадков.
R24 - Количество осадков - Количество выпавших осадков за 24 часа, мм.
S - Снежный покров - Высота снежного покрова, см. При наведении курсора мыши на число - состояние снежного покрова и степень покрытия местности в баллах.